星链-32692 (STARLINK-32692)

导读

STARLINK-32692是美国SpaceX公司星链(Starlink)星座中的一颗卫星,于2024年12月23日由猎鹰9号火箭从肯尼迪太空中心发射,属于星链Group 12批次。星链旨在低轨构建全球卫星互联网,该卫星运行在约550公里近地轨道,配备专用天线与太阳能板,为全球用户提供高速低延迟互联网接入,助力星链完成全球覆盖的组网目标。

基本信息
目录编号:
62422
目录名称:
STARLINK-32692
国际标识:
2024-249P
轨道中心:
EARTH
卫星名称:
星链-32692
卫星全名:
星链-32692 (STARLINK-32692)
卫星状态:
在轨 (已飞行620 天)
发射日期:
2024-12-23 UTC
国别 :
美国 (US)
星等 :
--
轨道信息
数据来源 国际轨道数据
星历时间: 2026-09-04T03:36:17+0800
19小时前
查看轨道信息
半长轴: 6861.167km
偏心率: 0.0002488
轨道倾角: 43.005°
近地点辐角 281.093°
升交点赤经 36.068°
平近点角 78.964°
近地点: 481.322km
远地点: 484.738km
周期: 94.266分钟
每日圈数: 15.275865
详细信息
固有亮度:
5
最大亮度:
2.5
卫星平台:
Starlink V1.0
覆盖范围:
全球
运营商:
太空探索技术公司
运营商所在国:
美国
制造商(研发单位):
太空探索技术公司
制造商所在国:
美国
使用方式:
暂无
卫星简介
Starlink 计划是 SpaceX 推出的全球卫星互联网项目,通过发射低轨道卫星,为全球尤其是偏远地区提供高速、低延迟的互联网服务。自 2019 年起,Starlink 已部署数千颗卫星,旨在缩小全球数字鸿沟,推动互联网普及。该项目还为军事、航空等行业提供通信支持,带来广泛经济效益。
2D轨道图
3D轨道图
轨道高度分析图
轨道倾角分析图
轨道综合分析图
查看轨道综合分析图
交会数据列表
事件ID 空间交会对象 最接近时刻(TCA) 交会距离 交会风险概率(CRP) 交会风险指数(CRI) 操作
CDM_260829-134406-242206-363721
2026-08-29T
13:44:22+0000
0.169 km
中距离
6.163239E-4 高风险 0.91
CDM_260906-200405-744406-242221
2026-09-06T
20:04:58+0000
0.284 km
中距离
3.473585E-4 高风险 0.86
CDM_260905-101605-655606-242221
2026-09-05T
10:16:00+0000
0.433 km
远距离
1.966637E-4 高风险 0.81
CDM_260906-220305-706006-242221
2026-09-06T
22:03:05+0000
0.828 km
远距离
3.893561E-5 中风险 0.67
CDM_260905-233605-655606-242221
2026-09-05T
23:36:19+0000
1.032 km
极远距离
1.561275E-5 中风险 0.59
CDM_260905-084105-655606-242222
2026-09-05T
08:41:51+0000
1.766 km
极远距离
2.679362E-6 低风险 0.44
CDM_260905-204606-242206-409121
OBJECT E (64091)
2026-09-05T
20:46:02+0000
1.977 km
极远距离
2.201414E-6 低风险 0.42
CDM_260905-115005-655606-242222
2026-09-05T
11:50:10+0000
2.117 km
极远距离
1.68713E-6 低风险 0.4
CDM_260905-220205-655606-242221
2026-09-05T
22:02:10+0000
2.234 km
极远距离
1.501325E-6 低风险 0.39
CDM_260906-233705-706006-242221
2026-09-06T
23:37:14+0000
2.477 km
极远距离
1.418276E-6 低风险 0.38